Location: Bidwell Hollow
(37.7387°N, 90.1707°W)
Time: 00:50:26
(UTC+00:00)

Vanguard 2 - Visible Passes

Search period start: 12 May 2026 00:00
Search period end: 22 May 2026 00:00
Orbit: 553 x 2895 km, 32.9° (Epoch: 11 May)

Date Brightness Start Highest point End Pass type
(mag) Time Alt. Az. Time Alt. Az. Time Alt. Az.
12 May 11.2 05:49:05 21° ESE 05:49:05 21° ESE 05:57:05 10° E visible
12 May 10.5 07:49:56 38° SSW 07:56:01 48° SSE 08:10:14 10° E visible
12 May 10.1 09:50:47 12° WSW 10:07:23 69° S 10:19:47 10° E visible
13 May 11.0 05:59:14 27° SE 05:59:14 27° SE 06:09:59 10° E visible
13 May 10.4 08:00:05 37° SSW 08:07:34 54° SSE 08:22:08 10° E visible
13 May 10.1 10:01:44 10° WSW 10:19:07 72° S 10:31:31 10° E visible
14 May 10.8 06:09:19 34° SE 06:09:19 34° SE 06:22:27 10° E visible
14 May 10.3 08:10:09 34° SW 08:19:09 60° SSE 08:33:57 10° E visible
14 May 10.1 10:13:26 10° W 10:30:52 73° S 10:43:14 10° E visible
15 May 10.5 06:19:18 40° SSE 06:19:34 40° SE 06:34:39 10° E visible
15 May 10.2 08:20:09 30° SW 08:30:48 65° SSE 08:45:44 10° E visible
16 May 11.4 04:28:24 14° ESE 04:28:24 14° ESE 04:31:36 10° E visible
16 May 10.4 06:29:14 46° SSE 06:30:56 46° SSE 06:46:41 10° E visible
16 May 10.2 08:30:03 25° WSW 08:42:28 70° SSE 08:57:30 10° E visible
17 May 11.2 04:38:14 20° ESE 04:38:14 20° ESE 04:44:48 10° E visible
17 May 10.2 06:39:03 48° S 06:42:22 53° SSE 06:58:36 10° E visible
17 May 10.2 08:39:51 19° WSW 08:54:11 73° S 09:09:14 10° E visible
18 May 10.9 04:47:56 27° ESE 04:47:56 27° ESE 04:57:27 10° E visible
18 May 10.2 06:48:45 47° SSW 06:53:52 59° SSE 07:10:26 10° E visible
18 May 10.2 08:49:33 13° WSW 09:05:55 74° S 09:20:57 10° E visible
19 May 10.6 04:57:31 35° SE 04:57:31 35° SE 05:09:45 10° E visible
19 May 10.2 06:58:18 42° SW 07:05:26 64° SSE 07:22:14 10° E visible
19 May 10.2 09:00:01 10° W 09:17:39 75° S 09:32:40 10° E visible
20 May 10.3 05:06:53 43° SE 05:06:53 43° SE 05:21:51 10° E visible
20 May 10.2 07:07:39 33° WSW 07:17:03 69° SSE 07:34:01 10° E visible
20 May 10.2 09:11:47 10° W 09:29:23 74° S 09:44:20 10° ESE visible
21 May 11.2 03:15:12 14° ESE 03:15:12 14° ESE 03:18:19 10° E visible
21 May 10.1 05:15:56 48° SSE 05:17:22 49° SSE 05:33:48 10° E visible
21 May 10.2 07:16:40 24° WSW 07:28:44 72° S 07:45:45 10° E visible
21 May 10.3 09:23:31 10° W 09:41:05 71° S 09:55:57 10° ESE visible
